AO-07 1 07530U 74089B 21119.50317565 -.00000049 00000-0 -20298-4 0 9999 2 07530 101.8507 94.0651 0012552 115.1910 354.9719 12.53648421125593 UO-11 1 14781U 84021B 21119.28369887 .00000143 00000-0 23553-4 0 9991 2 14781 97.5932 121.5470 0007069 237.6545 122.3986 14.83277149978643 LO-19 1 20442U 90005G 21119.40078772 .00000014 00000-0 21636-4 0 9992 2 20442 98.7372 74.4323 0010887 309.3427 50.6791 14.32984255633806 HUBBLE 1 20580U 90037B 21119.47604226 .00000683 00000-0 30405-4 0 9992 2 20580 28.4708 29.1431 0002492 252.9085 269.9414 15.09626179503654 MET-2/21 1 22782U 93055A 21119.36859442 .00000002 00000-0 -11343-4 0 9997 2 22782 82.5489 342.8758 0023581 70.2091 102.3908 13.83835070396733 AO-27 1 22825U 93061C 21119.33370444 -.00000006 00000-0 15549-4 0 9995 2 22825 98.9209 135.7368 0008587 170.4620 189.6726 14.30112833438964 IO-26 1 22826U 93061D 21119.31574102 -.00000003 00000-0 16847-4 0 9990 2 22826 98.9151 135.6318 0009350 158.8516 201.3053 14.30451269439200 FO-29 1 24278U 96046B 21119.49806124 -.00000007 00000-0 31743-4 0 9996 2 24278 98.5696 193.9527 0349220 276.5103 79.6397 13.53103083219626 NOAA-15 1 25338U 98030A 21119.60219256 .00000058 00000-0 42823-4 0 9992 2 25338 98.6867 148.5535 0011428 66.5552 293.6828 14.26025389194285 GO-32 1 25397U 98043D 21119.42158638 .00000000 00000-0 19682-4 0 9991 2 25397 98.7674 65.1183 0000869 166.0783 194.0420 14.23706685184518 ISS 1 25544U 98067A 21119.59319428 .00000520 00000-0 17610-4 0 9991 2 25544 51.6441 223.0840 0002710 297.4658 197.0435 15.48957954281066 NO-44 1 26931U 01043C 21119.24034585 -.00000008 00000-0 28578-4 0 9997 2 26931 67.0528 47.4446 0007074 263.7394 96.2901 14.30615873 22191 SO-50 1 27607U 02058C 21119.44144944 .00000056 00000-0 28502-4 0 9997 2 27607 64.5538 128.2188 0035157 39.1463 321.2173 14.75739712987315 CO-55 1 27844U 03031E 21119.30307671 .00000062 00000-0 47421-4 0 9993 2 27844 98.6818 128.2591 0009126 215.3672 144.6901 14.22304296924990 CO-57 1 27848U 03031J 21119.28164925 .00000047 00000-0 41331-4 0 9994 2 27848 98.6875 128.8047 0008804 229.7722 130.2686 14.21881815924825 RS-22 1 27939U 03042A 21119.54510930 .00000124 00000-0 30801-4 0 9993 2 27939 98.1324 257.0032 0014233 76.9337 283.3452 14.66974169940357 NOAA-18 1 28654U 05018A 21119.57313957 .00000079 00000-0 66893-4 0 9995 2 28654 98.9974 184.2351 0015107 63.0514 297.2198 14.12601618821638 CO-58 1 28895U 05043F 21119.34988973 .00000198 00000-0 46880-4 0 9997 2 28895 98.0507 253.6819 0016806 10.1109 350.0428 14.63900193826824 Falconsat-3 1 30776U 07006E 21119.24236987 .00005328 00000-0 12974-3 0 9995 2 30776 35.4351 56.3984 0002737 207.7179 152.3403 15.40357036785511 CO-65 1 32785U 08021C 21119.46797241 .00000374 00000-0 45603-4 0 9996 2 32785 97.6083 100.2228 0013416 159.0066 201.1705 14.88695184704884 AAUSAT2 1 32788U 08021F 21119.44701257 .00000787 00000-0 75834-4 0 9996 2 32788 97.5043 116.1643 0013250 76.5433 283.7265 14.95519917706534 DO-64 1 32789U 08021G 21119.40829960 .00001657 00000-0 10909-3 0 9993 2 32789 97.3801 156.6586 0010324 317.5153 42.5276 15.08816980709436 CO-66 1 32791U 08021J 21119.45139748 .00000675 00000-0 72912-4 0 9991 2 32791 97.5690 106.1664 0014481 125.5000 234.7572 14.91366129705470 RS-30 1 32953U 08025A 21119.53560810 .00000028 00000-0 12906-3 0 9990 2 32953 82.5011 81.3492 0020711 83.3522 276.9915 12.43101505586901 PRISM 1 33493U 09002B 21119.42146063 .00001241 00000-0 11155-3 0 9997 2 33493 98.1841 79.6156 0016218 89.8697 270.4382 14.97586685666984 NOAA-19 1 33591U 09005A 21119.60245571 .00000052 00000-0 53424-4 0 9998 2 33591 99.1873 139.0895 0012912 269.2819 90.6872 14.12463416630022 SRMSAT 1 37841U 11058D 21119.47679256 .00000357 00000-0 51300-4 0 9996 2 37841 19.9714 237.0951 0011918 115.1731 316.0754 14.10693151492745 HRBE 1 37855U 11061F 21119.44344790 .00001555 00000-0 82237-4 0 9998 2 37855 101.7153 17.4429 0167160 216.4264 142.5482 15.07512632518799 RS-40 1 38735U 12041C 21119.47881381 .00000029 00000-0 13842-3 0 9990 2 38735 82.4777 163.6333 0017011 188.0711 172.0098 12.42582790397101 ZACUBE-1 1 39417U 13066B 21119.48321301 .00000419 00000-0 58545-4 0 9991 2 39417 97.5909 106.3545 0057685 323.0143 36.7100 14.81490112401829 GOMX-1 1 39430U 13066Q 21119.58524229 .00000303 00000-0 64045-4 0 9995 2 39430 97.8133 45.4619 0149026 268.9379 89.4748 14.59591459395916 LO-74 1 39440U 13066AA 21119.44646874 .00000454 00000-0 69272-4 0 9996 2 39440 97.6725 91.2213 0080854 35.4440 325.2106 14.76217959399192 AO-73 1 39444U 13066AE 21119.42973382 .00000501 00000-0 67376-4 0 9991 2 39444 97.5819 108.6586 0056530 313.6654 45.9881 14.82391758400171 SPROUT 1 39770U 14029E 21119.53479931 .00001123 00000-0 12730-3 0 9990 2 39770 97.9087 230.8675 0009381 17.9335 342.2224 14.88346983376063 DTUSAT-2 1 40030U 14033W 21119.29768364 .00000455 00000-0 54408-4 0 9996 2 40030 97.9151 46.5588 0011453 344.0118 16.0736 14.88960877372005 EO-80 1 40032U 14033Y 21119.32666808 .00000489 00000-0 58099-4 0 9999 2 40032 97.9158 46.5936 0011420 344.9994 15.0883 14.88917347371988 HODOYOSHI-1 1 40299U 14070B 21119.54411744 .00001483 00000-0 62782-4 0 9995 2 40299 97.2884 194.4444 0013538 153.8702 318.6242 15.24642053359960 FIREBIRD FU3 1 40377U 15003B 21119.31876385 .00002572 00000-0 97047-4 0 9992 2 40377 99.0919 250.2957 0117812 338.0261 21.5941 15.22119698345315 FIREBIRD FU4 1 40378U 15003C 21119.42824119 .00002646 00000-0 99511-4 0 9993 2 40378 99.0924 250.5607 0117880 337.4665 22.1413 15.22170529345336 GRIFEX 1 40379U 15003D 21119.35969862 .00002009 00000-0 84444-4 0 9993 2 40379 99.0879 240.2185 0128902 9.2149 351.1401 15.17874764344732 NO-84 1 40654U 15025D 21118.49542034 .00032662 00000-0 25668-3 0 2796 2 40654 54.9820 276.9829 0080631 293.5852 65.6589 15.66936012218171 XW-2A 1 40903U 15049E 21119.47874564 .00004885 00000-0 10533-3 0 9994 2 40903 97.2409 174.1065 0012105 185.0042 288.5563 15.44975221315233 XW-2C 1 40906U 15049H 21119.54621292 .00001541 00000-0 82004-4 0 9992 2 40906 97.4861 122.5138 0014851 4.0535 111.3406 15.16658276310157 XW-2D 1 40907U 15049J 21119.55050972 .00001688 00000-0 88747-4 0 9997 2 40907 97.4848 122.2957 0013983 1.1829 113.2962 15.16967721310187 LILACSAT-2 1 40908U 15049K 21119.52598810 .00001056 00000-0 60971-4 0 9991 2 40908 97.5036 120.1870 0016342 15.1759 100.5805 15.14392310309826 XW-2E 1 40909U 15049L 21119.58017421 .00002441 00000-0 11841-3 0 9992 2 40909 97.4673 126.2731 0012780 348.7806 108.0451 15.19395444310510 XW-2F 1 40910U 15049M 21119.51166361 .00002364 00000-0 11639-3 0 9994 2 40910 97.4727 125.2807 0013888 348.1602 163.5306 15.18897259310293 XW-2B 1 40911U 15049N 21119.49136715 .00001660 00000-0 87539-4 0 9993 2 40911 97.4857 122.9248 0014009 2.6281 148.4313 15.16885194310060 DCBB 1 40912U 15049P 21119.51851189 .00002716 00000-0 12389-3 0 9999 2 40912 97.4465 129.6462 0013178 319.5980 159.4331 15.21416793310759 TW-1A 1 40928U 15051D 21119.53077455 .00007614 00000-0 16080-3 0 9991 2 40928 97.0804 145.6148 0011463 107.9943 22.2214 15.45389239314134 IO-86 1 40931U 15052B 21118.69897544 .00000731 00000-0 12718-4 0 9999 2 40931 5.9981 247.2044 0012682 55.7626 304.3720 14.76673359301930 ATHENOXAT-1 1 41168U 15077C 21119.49777140 .00003759 00000-0 15624-3 0 9998 2 41168 14.9872 260.9049 0010818 213.2899 200.7930 15.15542786297345 ChubuSat-2 1 41338U 16012B 21119.44120405 .00000497 00000-0 31772-4 0 9997 2 41338 31.0021 137.5585 0013650 7.7875 352.2971 15.00504618285230 ChubuSat-3 1 41339U 16012C 21119.46906441 .00000511 00000-0 32687-4 0 9995 2 41339 31.0107 134.6624 0013383 15.0525 345.0508 15.00654442285232 Horyu-4 1 41340U 16012D 21119.30461295 .00000786 00000-0 52164-4 0 9999 2 41340 31.0043 119.8793 0013730 44.7952 315.3791 15.01848638285398 e-st@r-II 1 41459U 16025D 21119.57787617 .00004381 00000-0 21671-3 0 9995 2 41459 98.1337 252.8932 0160392 226.9258 131.8468 15.07816028275050 AAUSAT4 1 41460U 16025E 21119.30798163 .00007319 00000-0 34327-3 0 9992 2 41460 98.1342 256.2400 0147601 212.3358 146.8771 15.10780756275295 LO-87 1 41557U 16033B 21119.52639867 .00003259 00000-0 11713-3 0 9990 2 41557 97.3918 213.7506 0014366 53.2908 63.1084 15.29271961274055 NuSat2 1 41558U 16033C 21119.53113847 .00003200 00000-0 10799-3 0 9996 2 41558 97.4013 217.3496 0013223 48.3839 81.8787 15.31364988274232 Lapan A3 1 41603U 16040E 21119.55627549 .00000329 00000-0 18313-4 0 9996 2 41603 97.2618 168.3308 0013580 166.9700 330.6010 15.20010142269156 Pratham 1 41783U 16059A 21119.08928067 .00000105 00000-0 29368-4 0 9996 2 41783 97.9694 170.8735 0034426 43.6423 316.7493 14.63131730245037 TY-1 1 41844U 16066D 21119.53594589 .00001987 00000-0 80780-4 0 9994 2 41844 97.3999 130.2600 0013430 316.2572 159.6213 15.25663503248443 CAS-2T 1 41847U 16066G 21119.42731008 .00000138 00000-0 31149-4 0 9996 2 41847 98.6059 178.3378 0365413 6.9235 353.6807 14.38180908234831 EO-88 1 42017U 17008BX 21119.44778600 .00002831 00000-0 10648-3 0 9996 2 42017 97.3185 187.9241 0004257 285.7833 74.2937 15.27946273233775 CAS-4B 1 42759U 17034B 21119.42736213 .00000554 00000-0 46683-4 0 9999 2 42759 43.0161 90.6018 0009850 225.1250 277.5955 15.10174045213731 CAS-4A 1 42761U 17034D 21119.42093306 .00000535 00000-0 45425-4 0 9993 2 42761 43.0170 89.7271 0010254 225.8275 276.1072 15.10255371213735 NIUSat 1 42766U 17036B 21119.35639422 .00001810 00000-0 80633-4 0 9994 2 42766 97.2548 167.0256 0014699 355.9630 4.1486 15.22593613213746 Aalto 1 1 42775U 17036L 21119.39366902 .00001624 00000-0 72722-4 0 9991 2 42775 97.2524 167.3341 0013258 355.4640 4.6474 15.22568545213731 URSA MAIOR 1 42776U 17036M 21119.40440388 .00001750 00000-0 77580-4 0 9992 2 42776 97.2537 167.7824 0013006 355.0671 5.0436 15.22819913213750 Max Valier Sat 1 42778U 17036P 21119.37327657 .00001754 00000-0 76343-4 0 9993 2 42778 97.2596 169.5836 0011528 358.8788 1.2421 15.23470429213812 Pegasus 1 42784U 17036V 21119.40131322 .00002163 00000-0 91327-4 0 9990 2 42784 97.2550 170.0528 0011281 2.2555 357.8731 15.24266766213881 NUDATSat 1 42787U 17036Y 21119.59961752 .00003962 00000-0 15611-3 0 9990 2 42787 97.2596 172.4901 0011086 355.7618 4.3523 15.26113147213883 SUCHAI 1 1 42788U 17036Z 21119.42523929 .00002594 00000-0 10655-3 0 9996 2 42788 97.2560 171.0016 0010675 359.8049 0.3183 15.25022132214019 SKCUBE 1 42789U 17036AA 21119.44616105 .00002373 00000-0 98434-4 0 9995 2 42789 97.2554 170.7574 0010629 0.4604 359.6642 15.24773947213928 VZLUSAT 1 1 42790U 17036AB 21119.39625273 .00003090 00000-0 12248-3 0 9992 2 42790 97.2582 172.2839 0009771 356.9273 3.1904 15.26088994214004 VENTA 1 1 42791U 17036AC 21119.09759523 .00002418 00000-0 10039-3 0 9995 2 42791 97.2550 170.4392 0010389 2.6047 357.5244 15.24733277213860 Robusta 1B 1 42792U 17036AD 21119.42249102 .00002372 00000-0 97736-4 0 9999 2 42792 97.2556 171.0948 0010204 0.9934 359.1323 15.25005266213950 D-SAT 1 42794U 17036AF 21119.31907619 .00000694 00000-0 64693-4 0 9994 2 42794 97.4653 141.8113 0126455 30.8491 330.0080 14.91533271209730 TechnoSat 1 42829U 17042E 21119.47247641 .00000276 00000-0 33014-4 0 9998 2 42829 97.4760 351.5941 0013072 315.7038 44.3134 14.91264038206384 QIKCOM-1 1 42983U 98067NF 21119.33359514 .00008167 00000-0 83487-4 0 9999 2 42983 51.6348 148.8068 0002868 146.6686 213.4490 15.66037521199706 AO-91 1 43017U 17073E 21119.23404253 .00001057 00000-0 85664-4 0 9996 2 43017 97.7102 25.1679 0256701 100.8875 262.1334 14.79457971185844 EcAMSat 1 43019U 98067NG 21119.35636455 .00028005 00000-0 17315-3 0 9993 2 43019 51.6355 118.2623 0002535 109.7713 250.3561 15.76871412282433 PICSAT 1 43132U 18004X 21119.46167298 .00002243 00000-0 90854-4 0 9994 2 43132 97.4105 194.4458 0009739 31.2325 328.9490 15.25679405183214 AO-92 1 43137U 18004AC 21119.45497602 .00001991 00000-0 82369-4 0 9994 2 43137 97.4084 193.9861 0009575 34.0432 326.1418 15.25106318183190 TianYi 2 1 43155U 18008A 21119.50633954 .00001828 00000-0 10876-3 0 9998 2 43155 97.4055 185.9390 0018417 133.7358 350.2554 15.12332574180675 Zhou Enlai 1 43156U 18008B 21119.49458337 .00001650 00000-0 99732-4 0 9999 2 43156 97.4106 185.7633 0015683 132.6431 352.6143 15.11928698180614 TianYi 6 1 43158U 18008D 21119.14185264 .00001336 00000-0 82714-4 0 9992 2 43158 97.4029 184.0645 0014482 132.6061 288.3086 15.11368633180494 S-Net D 1 43186U 18014G 21119.36281487 .00000966 00000-0 88852-4 0 9995 2 43186 97.6808 27.8248 0009271 242.2853 117.7429 14.97034290176956 S-Net B 1 43187U 18014H 21119.36271650 .00000967 00000-0 88969-4 0 9997 2 43187 97.6804 27.7930 0009268 242.1885 117.8398 14.97033808176950 S-Net A 1 43188U 18014J 21119.29588786 .00000974 00000-0 89571-4 0 9999 2 43188 97.6808 27.7699 0009248 242.4959 117.5323 14.97032402176943 S-Net C 1 43189U 18014K 21119.29636789 .00000962 00000-0 88540-4 0 9999 2 43189 97.6805 27.7209 0009246 242.4542 117.5741 14.97032719175498 FMN 1 1 43192U 18015A 21119.61302376 .00005501 00000-0 20505-3 0 9992 2 43192 97.4804 254.7721 0015997 59.0905 356.3219 15.27745680180137 Shaonian Xing 1 43199U 18015H 21119.56967280 .00003970 00000-0 15062-3 0 9994 2 43199 97.4592 252.0633 0017361 67.9279 60.7402 15.27316153180184 SurfSat 1 43614U 18070B 21119.48164989 .00005649 00000-0 13367-3 0 9994 2 43614 93.0261 285.6175 0013957 183.1706 176.9464 15.41721799147124 CP-7 DAVE 1 43615U 18070C 21119.42511229 .00005323 00000-0 12712-3 0 9994 2 43615 93.0264 285.5561 0014125 183.5981 176.5175 15.41447382147109 ELFIN-B 1 43616U 18070D 21119.47130983 .00007820 00000-0 17080-3 0 9991 2 43616 93.0223 285.7097 0014186 182.0642 178.0559 15.44092054147216 ELFIN-A 1 43617U 18070E 21119.44522699 .00008806 00000-0 18961-3 0 9992 2 43617 93.0269 286.4988 0013663 178.5454 181.5846 15.44517410147221 STARS-Me Mother 1 43640U 98067PQ 21119.40696093 .00120373 16440-4 39284-3 0 9992 2 43640 51.6250 126.9953 0004313 67.3217 292.8244 15.90475934146470 CubeBel 1 1 43666U 18083E 21119.52063185 .00002394 00000-0 11678-3 0 9993 2 43666 97.4600 148.4989 0014213 346.9933 171.8365 15.19202327138582 Changshagaoxin 1 43669U 18083H 21119.53102913 .00002029 00000-0 10298-3 0 9992 2 43669 97.4500 145.7332 0010301 344.5358 140.0292 15.18011701138462 Ten-Koh 1 43677U 18084G 21119.31276458 .00000222 00000-0 28602-4 0 9996 2 43677 97.9125 242.2459 0015716 191.6732 168.4124 14.90446191135980 PO-101 1 43678U 18084H 21119.55457246 -.00000205 00000-0 -14636-4 0 9994 2 43678 97.9151 244.6028 0008997 206.1345 153.9422 14.91734179136149 IRVINE 01 1 43693U 18088D 21119.35419546 .00004837 00000-0 19044-3 0 9994 2 43693 85.0372 227.5686 0016250 198.7968 161.2678 15.25215964136955 QO-100 1 43700U 18090A 21119.25882575 .00000138 00000-0 00000-0 0 9990 2 43700 0.0069 209.7128 0001373 209.5216 277.1920 1.00275050 8870 Reaktor Hello World 1 43743U 18096AA 21119.29149191 .00002542 00000-0 93609-4 0 9999 2 43743 97.3871 197.1804 0018982 91.3210 269.0204 15.28614306134627 MinXSS-2 1 43758U 18099A 21119.14191751 .00001151 00000-0 10757-3 0 9998 2 43758 97.6692 191.3519 0014878 208.0853 151.9568 14.96004426131142 AO-95 1 43770U 18099N 21119.46626335 .00000835 00000-0 80893-4 0 9995 2 43770 97.6675 190.7294 0013701 216.2585 143.7709 14.95277668131131 RANGE-B 1 43772U 18099Q 21119.43739474 .00000395 00000-0 40674-4 0 9997 2 43772 97.6761 191.6215 0013505 202.9057 157.1563 14.95569754131137 RANGE-A 1 43773U 18099R 21119.46835203 .00000777 00000-0 75853-4 0 9999 2 43773 97.6611 190.1029 0012994 202.2920 157.7738 14.95182177131121 MOVE-II 1 43780U 18099Y 21119.44712803 .00000546 00000-0 53962-4 0 9996 2 43780 97.6691 191.1898 0012676 213.0552 146.9878 14.95856010131141 SNUSat 2 1 43782U 18099AA 21119.44002416 .00000081 00000-0 12399-4 0 9993 2 43782 97.6675 191.0279 0012127 201.4572 158.6142 14.95525368131144 SnugLite 1 43784U 18099AC 21119.45245439 .00000342 00000-0 35895-4 0 9996 2 43784 97.6636 190.7796 0014364 210.5118 149.5269 14.95643386131167 ITASat 1 1 43786U 18099AE 21119.46209148 .00000543 00000-0 54054-4 0 9997 2 43786 97.6692 191.3690 0014518 209.5609 150.4792 14.95576981131163 EAGLET 1 1 43790U 18099AJ 21119.44125096 -.00000169 00000-0 -99252-5 0 9995 2 43790 97.6685 191.7413 0012536 213.6354 146.4072 14.95940852130884 ESEO 1 43792U 18099AL 21119.41886707 .00000578 00000-0 56974-4 0 9992 2 43792 97.6653 191.3491 0012434 209.5366 150.5155 14.95724366130931 CSIM 1 43793U 18099AM 21119.47079754 .00001321 00000-0 12118-3 0 9993 2 43793 97.6675 191.7074 0012547 204.4716 155.5912 14.96512557130940 Astrocast 0.1 1 43798U 18099AS 21119.46481955 .00001065 00000-0 99647-4 0 9995 2 43798 97.6684 191.9410 0012235 191.3740 168.7207 14.96123791131195 JO-97 1 43803U 18099AX 21119.43387529 .00000293 00000-0 31321-4 0 9998 2 43803 97.6658 191.0996 0014266 209.5797 150.4618 14.95818254131168 Suomi 100 1 43804U 18099AY 21119.43844958 .00000138 00000-0 17514-4 0 9999 2 43804 97.6654 191.0746 0014370 209.9012 150.1390 14.95790640131171 Al Farabi 2 1 43805U 18099AZ 21119.58027905 .00000291 00000-0 31043-4 0 9994 2 43805 97.6672 191.4111 0014226 208.7571 151.2867 14.95995368131208 CHOMPTT 1 43855U 18104G 21119.07400172 .00001844 00000-0 74615-4 0 9998 2 43855 85.0350 326.2451 0016146 336.0783 23.9708 15.23845684131571 ISAT 1 43879U 18111D 21119.45454652 .00000372 00000-0 37702-4 0 9997 2 43879 97.6892 27.5728 0011383 270.1102 89.8773 14.96584621125729 UWE-4 1 43880U 18111E 21119.31668026 .00000106 00000-0 14315-4 0 9996 2 43880 97.6900 27.8820 0010669 270.2773 89.7226 14.96823590127734 Sparrow 1 43881U 18111F 21119.28924093 .00001198 00000-0 10941-3 0 9994 2 43881 97.6906 27.9767 0010671 265.8480 94.1522 14.96875386127739 Lume 1 1 43908U 18111AJ 21119.48229975 .00002038 00000-0 81306-4 0 9991 2 43908 97.2380 15.7514 0022367 103.7843 256.5887 15.26072152130202 FO-98 1 43933U 19003B 21119.39259733 .00012328 00000-0 48264-3 0 9993 2 43933 97.1870 162.6570 0016277 199.9992 160.0611 15.25821000126620 FO-99 1 43937U 19003F 21119.39339655 .00002406 00000-0 96924-4 0 9992 2 43937 97.1811 164.5338 0023299 182.1208 177.9935 15.25547382126789 MYSat 1 1 44045U 18092F 21118.23517266 .00006017 00000-0 16070-3 0 9993 2 44045 51.6375 311.1571 0010460 27.1381 333.0148 15.39487715123725 AstroCast 0.2 1 44083U 19018F 21119.47611359 .00002017 00000-0 90043-4 0 9998 2 44083 97.3764 181.4679 0014083 139.2019 221.0275 15.22423497115447 AISTechSat 3 1 44103U 19018AB 21119.49469867 .00002115 00000-0 90177-4 0 9995 2 44103 97.3634 181.8513 0013969 149.6538 325.3551 15.23948121115554 AISat 1 1 44104U 19018AC 21119.22466782 .00002009 00000-0 64548-4 0 9995 2 44104 97.4269 196.3575 0057264 168.9638 191.2874 15.31927764116132 Raavana-1 1 44329U 98067QE 21119.43855827 .00041993 00000-0 30423-3 0 9999 2 44329 51.6326 177.2368 0004458 63.0239 297.1215 15.72988135106435 Uguisu 1 44330U 98067QF 21119.42178398 .00041723 00000-0 30731-3 0 9994 2 44330 51.6314 177.7948 0004504 64.7100 295.4364 15.72601973106405 NepaliSat-1 1 44331U 98067QG 21119.43204118 .00042406 00000-0 30789-3 0 9998 2 44331 51.6305 177.1110 0004369 65.0116 295.1336 15.72933317106429 Prox-1 1 44339U 19036A 21119.14310945 .00001219 00000-0 23694-3 0 9993 2 44339 24.0003 284.7573 0011216 0.2797 359.7700 14.53517516 98013 Oculus-ASR 1 44348U 19036K 21119.28374331 .00014142 00000-0 19182-3 0 9993 2 44348 28.5109 100.7155 0334838 95.3148 268.5734 15.10989526101461 Armadillo 1 44352U 19036P 21119.22814724 .00019446 00000-0 24857-3 0 9994 2 44352 28.5274 83.2977 0306677 122.0245 241.0525 15.17893235101587 NO-104 1 44354U 19036R 21119.22873003 .00015282 00000-0 20268-3 0 9997 2 44354 28.5264 94.9373 0330067 102.8010 260.9670 15.12443068101517 NO-103 1 44355U 19036S 21119.10178548 .00031980 00000-0 36103-3 0 9995 2 44355 28.5240 58.3406 0273300 162.4030 198.6249 15.27071539101877 CP9 1 44360U 19036X 21119.37543899 .00052009 -59843-5 38169-3 0 9999 2 44360 28.5076 2.4318 0207611 255.4007 102.3488 15.47631494102323 Move-IIb 1 44398U 19038N 21119.58679767 .00002202 00000-0 12586-3 0 9999 2 44398 97.5779 83.8274 0025783 115.2156 245.1751 15.13481009100370 SONATE 1 44400U 19038Q 21119.55714625 .00001243 00000-0 74711-4 0 9996 2 44400 97.5842 83.7109 0026333 116.1602 244.2339 15.12469009100343 BeeSat 9 1 44412U 19038AC 21119.40464747 .00001701 00000-0 99133-4 0 9994 2 44412 97.5841 83.7975 0023655 120.7690 239.5874 15.13147579100031 JAISAT-1 1 44419U 19038F 21119.45620106 .00001762 00000-0 10121-3 0 9995 2 44419 97.5846 84.3573 0022566 118.8601 241.4898 15.13632414100387 LightSail-2 1 44420U 19036AC 21119.43927965 .00005845 00000-0 11509-2 0 9992 2 44420 24.0070 265.4100 0019782 356.7764 3.2600 14.59799970 96367 Taurus 1 1 44530U 19059C 21119.46001556 .00000755 00000-0 22435-3 0 9997 2 44530 98.5498 209.3918 0011961 291.0501 68.9415 14.46011430 86000 Duchifat 3 1 44854U 19089C 21119.11721780 .00000962 00000-0 83377-4 0 9992 2 44854 36.9657 32.3849 0006803 95.8965 264.2543 14.99447895 75694 OPS-SAT 1 44878U 19092F 21119.49357263 .00001540 00000-0 82579-4 0 9990 2 44878 97.4746 303.7064 0013287 346.8277 13.2607 15.16412659 75417 TO-108 1 44881U 19093C 21119.49895585 .00000098 00000-0 19330-4 0 9991 2 44881 97.9253 198.8553 0016560 91.5619 268.7489 14.81442921 73482 FloripaSat 1 1 44885U 19093G 21119.47999368 .00000473 00000-0 65773-4 0 9996 2 44885 97.9269 199.3483 0016162 99.6301 260.6751 14.82265498 73516 RS-44 1 44909U 19096E 21119.45018858 .00000012 00000-0 44914-5 0 9994 2 44909 82.5189 145.3757 0216883 207.4031 151.5498 12.79709793 62553 SwampSat-2 1 45115U 19071E 21119.45539008 .00046843 00000-0 82453-3 0 9992 2 45115 51.6366 259.3433 0005388 128.6869 231.4603 15.49966413 69831 HO-107 1 45119U 19071J 21119.15402561 .00003865 00000-0 12113-3 0 9999 2 45119 51.6420 275.8796 0011875 111.5239 248.7010 15.35501222 69595 Phoenix 1 45258U 98067RB 21119.43374189 .00009083 00000-0 13596-3 0 9994 2 45258 51.6395 214.0409 0005779 66.8473 293.3127 15.55770097 67575 AztechSat-1 1 45261U 98067RE 21119.47395367 .00027327 00000-0 30159-3 0 9998 2 45261 51.6365 206.0566 0005582 72.5551 287.6053 15.62849709 67719 QARMAN 1 45263U 98067RG 21119.47797123 .00020979 00000-0 26141-3 0 9998 2 45263 51.6383 209.8454 0005835 73.8891 286.2745 15.59854555 67691 Quetzal 1 1 45598U 98067RL 21119.46467697 .00019077 00000-0 25429-3 0 9993 2 45598 51.6398 213.5236 0000722 177.8884 182.2112 15.58142545 56919 BY70-2 1 45857U 20042B 21119.46047130 .00001792 00000-0 26200-3 0 9998 2 45857 97.9842 195.7181 0011256 21.8867 338.2834 14.76899200 44318 UPMSat 2 1 46276U 20061E 21119.45629021 .00000916 00000-0 50521-4 0 9990 2 46276 97.4344 194.2152 0002368 128.8159 231.3286 15.16402570 36112 AmicalSat 1 46287U 20061R 21119.15313072 .00001346 00000-0 85770-4 0 9997 2 46287 97.4897 193.4965 0001106 254.5922 105.5185 15.10389787 35908 SALSAT 1 46495U 20068K 21119.60914790 .00000306 00000-0 27016-4 0 9993 2 46495 97.6916 57.4048 0015045 233.9500 126.0333 15.03428274 31999 BY70-3 1 46839U 20079N 21119.51590686 .00005168 00000-0 16242-3 0 9990 2 46839 97.2423 194.3474 0008086 34.6596 92.7989 15.33386684 26702 SPOC 1 46921U 98067RR 21119.45503138 .00008646 00000-0 14064-3 0 9997 2 46921 51.6420 220.2153 0001790 271.9018 88.1768 15.53536327 27245 Bobcat-1 1 46922U 98067RS 21119.45255955 .00012587 00000-0 19191-3 0 9994 2 46922 51.6430 219.4617 0001805 288.6590 71.4205 15.54862712 27218 Neutron-1 1 46923U 98067RT 21118.56601954 .00011260 00000-0 18178-3 0 9991 2 46923 51.6423 224.7754 0001860 283.3975 76.6808 15.53397647 27138 CAPE 3 1 47309U 21002A 21119.46335725 .00002321 00000-0 11582-3 0 9995 2 47309 60.6818 115.0782 0034684 19.3200 340.9192 15.20595840 15438 AO-109 1 47311U 21002C 21119.46835099 .00001813 00000-0 91178-4 0 9992 2 47311 60.6837 114.5456 0029467 19.8718 340.3508 15.21496428 15412 MiTEE 1 1 47314U 21002F 21119.45328587 .00003638 00000-0 16433-3 0 9990 2 47314 60.6842 113.8806 0027662 10.4554 349.7102 15.22846591 15449 ExoCube 2 1 47319U 21002L 21119.49256829 .00001334 00000-0 70993-4 0 9991 2 47319 60.6841 114.6595 0030566 20.5534 339.6774 15.21134917 15381 UVSQ-SAT 1 47438U 21006AB 21119.44395738 .00001337 00000-0 79291-4 0 9998 2 47438 97.4914 181.5370 0011113 266.6736 93.3224 15.13034513 14644 YUSAT 1 1 47439U 21006AC 21119.44571695 .00001416 00000-0 83794-4 0 9998 2 47439 97.4916 181.5366 0010982 266.8550 93.1425 15.13011199 14647 SOMP 2b 1 47445U 21006AJ 21119.12255360 .00001309 00000-0 77997-4 0 9997 2 47445 97.4887 181.1627 0010722 272.3272 87.6731 15.12880891 14596 IDEASSat 1 47458U 21006AX 21119.39559546 .00001246 00000-0 74755-4 0 9992 2 47458 97.4978 181.5291 0009822 268.6151 91.3954 15.12744413 14638 RSP-01 1 47925U 98067SB 21119.33954701 .00009803 00000-0 17525-3 0 9996 2 47925 51.6428 223.9283 0001664 222.5498 137.5362 15.50688276 7151 TAUSAT-1 1 47926U 98067SC 21119.45885404 .00011694 00000-0 20418-3 0 9999 2 47926 51.6432 223.2260 0002802 223.9543 136.1224 15.51146808 7160 Tsuru 1 47927U 98067SD 21119.34029177 .00009123 00000-0 16407-3 0 9992 2 47927 51.6429 223.9331 0001706 216.8655 143.2217 15.50615697 7156 STARS-EC 1 47928U 98067SE 21118.82630757 .00011081 00000-0 19802-3 0 9995 2 47928 51.6427 226.4978 0005932 292.8714 67.1648 15.50540576 7059 Maya-2 1 47929U 98067SF 21119.33932908 .00008821 00000-0 15873-3 0 9998 2 47929 51.6429 223.9270 0001795 213.1054 146.9823 15.50647014 7118 OPUSAT-II 1 47930U 98067SG 21119.46709510 .00012788 00000-0 22480-3 0 9994 2 47930 51.6429 223.2806 0001636 216.6936 143.3942 15.50858590 7171 GuaraniSat-1 1 47931U 98067SH 21119.46783193 .00008735 00000-0 15718-3 0 9997 2 47931 51.6430 223.2856 0001819 212.5956 147.4921 15.50662782 7177 CubeSX-Sirius-HSE 1 47951U 21022V 21119.53040464 .00001701 00000-0 12158-3 0 9992 2 47951 97.5645 22.6600 0023463 116.3482 244.0147 15.05597645 5692 KSU-Cubesat 1 47954U 21022Y 21119.46118344 .00001099 00000-0 79820-4 0 9990 2 47954 97.5636 22.5990 0023192 115.8258 244.5364 15.05706925 5408 GRBAlpha 1 47959U 21022AD 21119.52954884 .00001703 00000-0 12162-3 0 9996 2 47959 97.5646 22.6631 0023351 116.6611 243.6988 15.05632579 4512 Orbicraft-Zorkiy 1 47960U 21022AE 21119.52793217 .00001670 00000-0 11916-3 0 9998 2 47960 97.5659 22.6719 0022976 116.4827 243.8734 15.05697258 5207 STECCO 1 47962U 21022AG 21119.51908072 .00001367 00000-0 95915-4 0 9991 2 47962 97.5622 22.7062 0018509 111.6963 334.7811 15.06690764 4500 DIY-1 1 47963U 21022AH 21119.43026786 .00002169 00000-0 14826-3 0 9998 2 47963 97.5613 22.6318 0021291 109.8869 250.4655 15.07014317 4516 MO-110 1 47964U 21022AJ 21119.49700407 .00001252 00000-0 87501-4 0 9997 2 47964 97.5626 22.6970 0021507 109.3120 251.0411 15.06948622 4500 /EX
